Burlington, WA
on Friday, November 16, 2012

Friday
Previous Day Next Day
Daily Summary
 ActualAverage (KBLI)Record (KBLI)
Temperature
Mean Temperature °F / °C 43°F / 6°C  
Max Temperature 51°F / 11°C 50°F / 10°C 63°F / 17°C (1976)
Min Temperature 32°F / 0°C 37°F / 3°C 18°F / -7°C (1959)
Degree Days
Heating Degree Days 24 22  
Month to date heating degree days 323  
Cooling Degree Days 0 0  
Month to date cooling degree days 0  
Year to date cooling degree days 42  
Moisture
Dew Point 40°F / 4°C   
Average Humidity 91    
Maximum Humidity 100    
Minimum Humidity 62    
Precipitation
Precipitation 0.06 in / 1.52 cm 0.21 in / 5.33 cm 1.22 in / 3.10 cm (1973)
Month to date precipitation 3.15  
Year to date precipitation 28.96  
Wind
Wind Speed 3 mph / 5 km/h   
Max Wind Speed 14 mph / 23 km/h   
Max Gust Speed mph / km/h   
Visibility 7 miles / 11 kilometers   
Events     

Key: T is trace of precipitation, MM is missing value
Source: NWS Daily Summary
Time(PST)TemperatureDew PointHumidity Pressure Visibility Wind DirectionWind SpeedGust SpeedPrecipitationEvents Conditions
12:15 AM 39.2°F / 4.0°C 39.2°F / 4.0°C 100% 29.95 in / 1014.1 hPa 0.2 miles / 0.4 kilometers Calm Calm - 0.00 in / 0.0 cm   Overcast
12:35 AM 37.4°F / 3.0°C 37.4°F / 3.0°C 100% 29.95 in / 1014.1 hPa 0.2 miles / 0.4 kilometers Calm Calm - 0.00 in / 0.0 cm   Overcast
12:55 AM 37.4°F / 3.0°C 37.4°F / 3.0°C 100% 29.95 in / 1014.1 hPa 0.2 miles / 0.4 kilometers Calm Calm - 0.00 in / 0.0 cm   Overcast
1:15 AM 37.4°F / 3.0°C 37.4°F / 3.0°C 100% 29.95 in / 1014.1 hPa 0.2 miles / 0.4 kilometers Calm Calm - 0.00 in / 0.0 cm   Overcast
1:35 AM 37.4°F / 3.0°C 37.4°F / 3.0°C 100% 29.94 in / 1013.8 hPa 0.5 miles / 0.8 kilometers Calm Calm - 0.00 in / 0.0 cm   Overcast
1:55 AM 35.6°F / 2.0°C 35.6°F / 2.0°C 100% 29.94 in / 1013.8 hPa 0.5 miles / 0.8 kilometers Calm Calm - 0.00 in / 0.0 cm   Overcast
2:15 AM 35.6°F / 2.0°C 35.6°F / 2.0°C 100% 29.94 in / 1013.8 hPa 0.5 miles / 0.8 kilometers Calm Calm - 0.00 in / 0.0 cm   Mostly Cloudy
2:35 AM 35.6°F / 2.0°C 35.6°F / 2.0°C 100% 29.94 in / 1013.8 hPa 0.2 miles / 0.4 kilometers Calm Calm - 0.00 in / 0.0 cm   Overcast
2:55 AM 35.6°F / 2.0°C 35.6°F / 2.0°C 100% 29.93 in / 1013.4 hPa 0.8 miles / 1.2 kilometers Calm Calm - 0.00 in / 0.0 cm   Mostly Cloudy
3:15 AM 33.8°F / 1.0°C 33.8°F / 1.0°C 100% 29.93 in / 1013.4 hPa 1.5 miles / 2.4 kilometers NNW 3.5 mph / 5.6 km/h - 0.00 in / 0.0 cm   Clear
3:35 AM 33.8°F / 1.0°C 33.8°F / 1.0°C 100% 29.93 in / 1013.4 hPa 3.0 miles / 4.8 kilometers Calm Calm - 0.00 in / 0.0 cm   Clear
3:55 AM 33.8°F / 1.0°C 33.8°F / 1.0°C 100% 29.92 in / 1013.1 hPa 0.8 miles / 1.2 kilometers Calm Calm - 0.00 in / 0.0 cm   Mostly Cloudy
4:15 AM 32.0°F / 0.0°C 32.0°F / 0.0°C 100% 29.93 in / 1013.4 hPa 0.5 miles / 0.8 kilometers Calm Calm - 0.00 in / 0.0 cm   Overcast
4:35 AM 32.0°F / 0.0°C 32.0°F / 0.0°C 100% 29.92 in / 1013.1 hPa 2.5 miles / 4.0 kilometers Calm Calm - 0.00 in / 0.0 cm   Overcast
4:55 AM 33.8°F / 1.0°C 33.8°F / 1.0°C 100% 29.92 in / 1013.1 hPa 7.0 miles / 11.3 kilometers Calm Calm - 0.00 in / 0.0 cm   Mostly Cloudy
5:15 AM 33.8°F / 1.0°C 33.8°F / 1.0°C 100% 29.92 in / 1013.1 hPa 4.0 miles / 6.4 kilometers Calm Calm - 0.00 in / 0.0 cm   Mostly Cloudy
5:35 AM 33.8°F / 1.0°C 33.8°F / 1.0°C 100% 29.92 in / 1013.1 hPa 2.5 miles / 4.0 kilometers Calm Calm - 0.00 in / 0.0 cm   Scattered Clouds
5:55 AM 33.8°F / 1.0°C 33.8°F / 1.0°C 100% 29.91 in / 1012.8 hPa 1.0 miles / 1.6 kilometers Calm Calm - 0.00 in / 0.0 cm   Mostly Cloudy
6:15 AM 33.8°F / 1.0°C 33.8°F / 1.0°C 100% 29.91 in / 1012.8 hPa 3.0 miles / 4.8 kilometers Calm Calm - 0.00 in / 0.0 cm   Mostly Cloudy
6:35 AM 35.6°F / 2.0°C 35.6°F / 2.0°C 100% 29.90 in / 1012.4 hPa 8.0 miles / 12.9 kilometers Calm Calm - 0.00 in / 0.0 cm   Mostly Cloudy
6:55 AM 35.6°F / 2.0°C 35.6°F / 2.0°C 100% 29.90 in / 1012.4 hPa 7.0 miles / 11.3 kilometers Calm Calm - 0.00 in / 0.0 cm   Overcast
7:15 AM 35.6°F / 2.0°C 35.6°F / 2.0°C 100% 29.90 in / 1012.4 hPa 9.0 miles / 14.5 kilometers Calm Calm - 0.00 in / 0.0 cm   Overcast
7:35 AM 35.6°F / 2.0°C 35.6°F / 2.0°C 100% 29.90 in / 1012.4 hPa 6.0 miles / 9.7 kilometers Calm Calm - 0.00 in / 0.0 cm   Overcast
7:55 AM 35.6°F / 2.0°C 35.6°F / 2.0°C 100% 29.90 in / 1012.4 hPa 5.0 miles / 8.0 kilometers ENE 3.5 mph / 5.6 km/h - 0.00 in / 0.0 cm   Overcast
8:15 AM 37.4°F / 3.0°C 37.4°F / 3.0°C 100% 29.90 in / 1012.4 hPa 5.0 miles / 8.0 kilometers Calm Calm - 0.00 in / 0.0 cm   Overcast
8:35 AM 37.4°F / 3.0°C 37.4°F / 3.0°C 100% 29.91 in / 1012.8 hPa 5.0 miles / 8.0 kilometers Calm Calm - 0.00 in / 0.0 cm   Overcast
8:55 AM 37.4°F / 3.0°C 37.4°F / 3.0°C 100% 29.90 in / 1012.4 hPa 8.0 miles / 12.9 kilometers East 4.6 mph / 7.4 km/h - 0.00 in / 0.0 cm   Overcast
9:15 AM 37.4°F / 3.0°C 37.4°F / 3.0°C 100% 29.90 in / 1012.4 hPa 10.0 miles / 16.1 kilometers Calm Calm - 0.00 in / 0.0 cm   Mostly Cloudy
9:35 AM 39.2°F / 4.0°C 39.2°F / 4.0°C 100% 29.90 in / 1012.4 hPa 9.0 miles / 14.5 kilometers East 4.6 mph / 7.4 km/h - 0.00 in / 0.0 cm   Partly Cloudy
9:55 AM 42.8°F / 6.0°C 42.8°F / 6.0°C 100% 29.91 in / 1012.8 hPa 10.0 miles / 16.1 kilometers East 4.6 mph / 7.4 km/h - 0.00 in / 0.0 cm   Mostly Cloudy
10:15 AM 44.6°F / 7.0°C 42.8°F / 6.0°C 93% 29.91 in / 1012.8 hPa 10.0 miles / 16.1 kilometers Calm Calm - 0.00 in / 0.0 cm   Overcast
10:35 AM 44.6°F / 7.0°C 41.0°F / 5.0°C 87% 29.91 in / 1012.8 hPa 9.0 miles / 14.5 kilometers Calm Calm - 0.00 in / 0.0 cm   Overcast
10:55 AM 44.6°F / 7.0°C 41.0°F / 5.0°C 87% 29.91 in / 1012.8 hPa 10.0 miles / 16.1 kilometers Calm Calm - 0.00 in / 0.0 cm   Overcast
11:15 AM 44.6°F / 7.0°C 41.0°F / 5.0°C 87% 29.90 in / 1012.4 hPa 9.0 miles / 14.5 kilometers East 3.5 mph / 5.6 km/h - 0.00 in / 0.0 cm   Overcast
11:35 AM 46.4°F / 8.0°C 42.8°F / 6.0°C 87% 29.90 in / 1012.4 hPa 10.0 miles / 16.1 kilometers SSE 3.5 mph / 5.6 km/h - 0.00 in / 0.0 cm   Overcast
11:55 AM 48.2°F / 9.0°C 42.8°F / 6.0°C 82% 29.89 in / 1012.1 hPa 9.0 miles / 14.5 kilometers ESE 5.8 mph / 9.3 km/h - 0.00 in / 0.0 cm   Overcast
12:15 PM 48.2°F / 9.0°C 42.8°F / 6.0°C 82% 29.88 in / 1011.7 hPa 10.0 miles / 16.1 kilometers ESE 6.9 mph / 11.1 km/h - 0.00 in / 0.0 cm   Overcast
12:35 PM 48.2°F / 9.0°C 42.8°F / 6.0°C 82% 29.87 in / 1011.4 hPa 10.0 miles / 16.1 kilometers ESE 5.8 mph / 9.3 km/h - 0.00 in / 0.0 cm   Mostly Cloudy
12:55 PM 48.2°F / 9.0°C 42.8°F / 6.0°C 82% 29.87 in / 1011.4 hPa 10.0 miles / 16.1 kilometers SE 4.6 mph / 7.4 km/h - 0.00 in / 0.0 cm   Mostly Cloudy
1:15 PM 50.0°F / 10.0°C 39.2°F / 4.0°C 66% 29.86 in / 1011.1 hPa 10.0 miles / 16.1 kilometers SSE 5.8 mph / 9.3 km/h - 0.00 in / 0.0 cm   Mostly Cloudy
1:35 PM 51.8°F / 11.0°C 39.2°F / 4.0°C 62% 29.85 in / 1010.7 hPa 10.0 miles / 16.1 kilometers SE 8.1 mph / 13.0 km/h - 0.00 in / 0.0 cm   Mostly Cloudy
1:55 PM 51.8°F / 11.0°C 41.0°F / 5.0°C 67% 29.85 in / 1010.7 hPa 10.0 miles / 16.1 kilometers SSE 10.4 mph / 16.7 km/h - 0.00 in / 0.0 cm   Overcast
2:15 PM 51.8°F / 11.0°C 41.0°F / 5.0°C 67% 29.84 in / 1010.4 hPa 10.0 miles / 16.1 kilometers SSE 9.2 mph / 14.8 km/h - 0.00 in / 0.0 cm   Overcast
2:35 PM 51.8°F / 11.0°C 42.8°F / 6.0°C 71% 29.84 in / 1010.4 hPa 10.0 miles / 16.1 kilometers SSE 5.8 mph / 9.3 km/h - 0.00 in / 0.0 cm   Overcast
3:15 PM 51.8°F / 11.0°C 42.8°F / 6.0°C 71% 29.82 in / 1009.7 hPa 10.0 miles / 16.1 kilometers ESE 6.9 mph / 11.1 km/h - 0.00 in / 0.0 cm   Mostly Cloudy
3:35 PM 51.8°F / 11.0°C 41.0°F / 5.0°C 67% 29.81 in / 1009.4 hPa 10.0 miles / 16.1 kilometers ESE 9.2 mph / 14.8 km/h - 0.00 in / 0.0 cm   Mostly Cloudy
3:55 PM 51.8°F / 11.0°C 41.0°F / 5.0°C 67% 29.81 in / 1009.4 hPa 10.0 miles / 16.1 kilometers ESE 11.5 mph / 18.5 km/h - 0.00 in / 0.0 cm   Scattered Clouds
4:15 PM 51.8°F / 11.0°C 41.0°F / 5.0°C 67% 29.81 in / 1009.4 hPa 10.0 miles / 16.1 kilometers SE 9.2 mph / 14.8 km/h - 0.00 in / 0.0 cm   Mostly Cloudy
4:35 PM 51.8°F / 11.0°C 41.0°F / 5.0°C 67% 29.81 in / 1009.4 hPa 10.0 miles / 16.1 kilometers SSE 12.7 mph / 20.4 km/h - 0.00 in / 0.0 cm   Overcast
4:55 PM 51.8°F / 11.0°C 42.8°F / 6.0°C 71% 29.81 in / 1009.4 hPa 10.0 miles / 16.1 kilometers SE 8.1 mph / 13.0 km/h - 0.00 in / 0.0 cm   Mostly Cloudy
5:15 PM 50.0°F / 10.0°C 44.6°F / 7.0°C 82% 29.80 in / 1009.0 hPa 8.0 miles / 12.9 kilometers ESE 11.5 mph / 18.5 km/h - 0.00 in / 0.0 cm   Mostly Cloudy
5:35 PM 48.2°F / 9.0°C 46.4°F / 8.0°C 93% 29.79 in / 1008.7 hPa 7.0 miles / 11.3 kilometers SSE 8.1 mph / 13.0 km/h - 0.00 in / 0.0 cm   Overcast
5:55 PM 48.2°F / 9.0°C 46.4°F / 8.0°C 93% 29.79 in / 1008.7 hPa 10.0 miles / 16.1 kilometers East 8.1 mph / 13.0 km/h - 0.01 in / 0.3 cm   Overcast
6:15 PM 46.4°F / 8.0°C 46.4°F / 8.0°C 100% 29.78 in / 1008.4 hPa 8.0 miles / 12.9 kilometers East 9.2 mph / 14.8 km/h - 0.01 in / 0.3 cm   Overcast
6:35 PM 46.4°F / 8.0°C 46.4°F / 8.0°C 100% 29.77 in / 1008.0 hPa 10.0 miles / 16.1 kilometers East 8.1 mph / 13.0 km/h - 0.02 in / 0.5 cm   Overcast
6:55 PM 46.4°F / 8.0°C 46.4°F / 8.0°C 100% 29.76 in / 1007.7 hPa 10.0 miles / 16.1 kilometers East 6.9 mph / 11.1 km/h - 0.02 in / 0.5 cm   Mostly Cloudy
7:15 PM 48.2°F / 9.0°C 46.4°F / 8.0°C 93% 29.75 in / 1007.3 hPa 10.0 miles / 16.1 kilometers East 10.4 mph / 16.7 km/h - 0.00 in / 0.0 cm   Mostly Cloudy
7:35 PM 48.2°F / 9.0°C 46.4°F / 8.0°C 93% 29.74 in / 1007.0 hPa 10.0 miles / 16.1 kilometers East 12.7 mph / 20.4 km/h - 0.00 in / 0.0 cm   Overcast
7:55 PM 50.0°F / 10.0°C 46.4°F / 8.0°C 87% 29.74 in / 1007.0 hPa 10.0 miles / 16.1 kilometers ESE 12.7 mph / 20.4 km/h - 0.00 in / 0.0 cm   Overcast
8:15 PM 48.2°F / 9.0°C 46.4°F / 8.0°C 93% 29.74 in / 1007.0 hPa 10.0 miles / 16.1 kilometers ENE 13.8 mph / 22.2 km/h - 0.00 in / 0.0 cm   Overcast
8:35 PM 46.4°F / 8.0°C 46.4°F / 8.0°C 100% 29.74 in / 1007.0 hPa 6.0 miles / 9.7 kilometers ENE 13.8 mph / 22.2 km/h - 0.02 in / 0.5 cm   Overcast
8:55 PM 46.4°F / 8.0°C 46.4°F / 8.0°C 100% 29.73 in / 1006.7 hPa 10.0 miles / 16.1 kilometers East 11.5 mph / 18.5 km/h - 0.03 in / 0.8 cm   Overcast
9:15 PM 46.4°F / 8.0°C 46.4°F / 8.0°C 100% 29.72 in / 1006.3 hPa 10.0 miles / 16.1 kilometers East 13.8 mph / 22.2 km/h - 0.00 in / 0.0 cm   Overcast
9:35 PM 48.2°F / 9.0°C 46.4°F / 8.0°C 93% 29.73 in / 1006.7 hPa 10.0 miles / 16.1 kilometers East 11.5 mph / 18.5 km/h - 0.00 in / 0.0 cm   Overcast
9:55 PM 48.2°F / 9.0°C 46.4°F / 8.0°C 93% 29.73 in / 1006.7 hPa 10.0 miles / 16.1 kilometers East 6.9 mph / 11.1 km/h - 0.00 in / 0.0 cm   Overcast
10:15 PM 48.2°F / 9.0°C 46.4°F / 8.0°C 93% 29.72 in / 1006.3 hPa 10.0 miles / 16.1 kilometers East 13.8 mph / 22.2 km/h - 0.00 in / 0.0 cm   Overcast
10:35 PM 48.2°F / 9.0°C 46.4°F / 8.0°C 93% 29.71 in / 1006.0 hPa 10.0 miles / 16.1 kilometers ENE 13.8 mph / 22.2 km/h - 0.00 in / 0.0 cm   Overcast
10:55 PM 48.2°F / 9.0°C 46.4°F / 8.0°C 93% 29.70 in / 1005.6 hPa 10.0 miles / 16.1 kilometers ENE 13.8 mph / 22.2 km/h - 0.00 in / 0.0 cm   Overcast
11:15 PM 48.2°F / 9.0°C 46.4°F / 8.0°C 93% 29.69 in / 1005.3 hPa 10.0 miles / 16.1 kilometers ENE 10.4 mph / 16.7 km/h - 0.00 in / 0.0 cm   Overcast
11:35 PM 48.2°F / 9.0°C 46.4°F / 8.0°C 93% 29.69 in / 1005.3 hPa 10.0 miles / 16.1 kilometers East 11.5 mph / 18.5 km/h - 0.00 in / 0.0 cm   Overcast
Moon Phase
Nov. 16 Nov. 20 Nov. 28 Dec. 06 Dec. 13
Sunrise:07:19 AM (PST) Moon Rise:10:23 AM (PST)11/16
Sunset:04:28 PM (PST) Moon Set:07:31 PM (PST)11/16

Copyright © 2014 The Weather Underground, Inc.